| time (UTC) | temp F | wind direction | speed MPH | gust MPH | rain 1hr in | rain 24hr in | rain mn in | humidity % | barometer mb |
| 20260505055603 | 62 | 227 | 1.0 | 12.0 | 0.00 | 0.00 | 0.00 | 53 | 1013.4 |
| 20260505054602 | 61 | 216 | 1.0 | 2.0 | 0.00 | 0.00 | 0.00 | 55 | 1013.2 |
| 20260505053559 | 59 | 214 | 2.0 | 8.0 | 0.00 | 0.00 | 0.00 | 58 | 1013.1 |
| 20260505052557 | 57 | 227 | 1.0 | 10.0 | 0.00 | 0.00 | 0.00 | 60 | 1013.1 |
| 20260505051556 | 53 | 237 | 1.0 | 11.0 | 0.00 | 0.00 | 0.00 | 61 | 1013.1 |
| 20260505050614 | 52 | 235 | 1.0 | 7.0 | 0.00 | 0.00 | 0.00 | 61 | 1013.2 |
| 20260505041544 | 51 | 215 | 1.0 | 3.0 | 0.00 | 0.00 | 0.00 | 60 | 1013.1 |
| 20260505040622 | 51 | 225 | 1.0 | 18.0 | 0.00 | 0.00 | 0.00 | 59 | 1013.1 |
| 20260505035540 | 50 | 201 | 1.0 | 6.0 | 0.00 | 0.00 | 0.00 | 59 | 1013.0 |
| 20260505034538 | 50 | 206 | 1.0 | 11.0 | 0.00 | 0.00 | 0.00 | 59 | 1013.0 |
| 20260505033615 | 50 | 214 | 1.0 | 6.0 | 0.00 | 0.00 | 0.00 | 59 | 1012.9 |
| 20260505032554 | 50 | 225 | 1.0 | 2.0 | 0.00 | 0.00 | 0.00 | 59 | 1012.9 |
| 20260505031531 | 50 | 213 | 2.0 | 16.0 | 0.00 | 0.00 | 0.00 | 58 | 1012.8 |
| 20260505030530 | 50 | 221 | 1.0 | 3.0 | 0.00 | 0.00 | 0.00 | 58 | 1012.8 |
| 20260505025527 | 50 | 235 | 1.0 | 12.0 | 0.00 | 0.00 | 0.00 | 58 | 1012.8 |
| 20260505024546 | 50 | 240 | 1.0 | 3.0 | 0.00 | 0.00 | 0.00 | 58 | 1012.8 |
| 20260505023523 | 51 | 270 | 1.0 | 4.0 | 0.00 | 0.00 | 0.00 | 58 | 1012.8 |
| 20260505022542 | 51 | 227 | 1.0 | 6.0 | 0.00 | 0.00 | 0.00 | 57 | 1012.8 |
| 20260505021519 | 51 | 210 | 1.0 | 6.0 | 0.00 | 0.00 | 0.00 | 57 | 1012.8 |
| 20260505020517 | 51 | 214 | 1.0 | 6.0 | 0.00 | 0.00 | 0.00 | 57 | 1012.8 |
| 20260505015516 | 51 | 270 | 1.0 | 4.0 | 0.00 | 0.00 | 0.00 | 57 | 1012.7 |
| 20260505014514 | 52 | 211 | 1.0 | 6.0 | 0.00 | 0.00 | 0.00 | 55 | 1012.7 |
| 20260505013511 | 52 | 200 | 1.0 | 6.0 | 0.00 | 0.00 | 0.00 | 55 | 1012.8 |
| 20260505012529 | 52 | 189 | 1.0 | 4.0 | 0.00 | 0.00 | 0.00 | 54 | 1012.7 |
| 20260505011508 | 52 | 225 | 1.0 | 4.0 | 0.00 | 0.00 | 0.00 | 54 | 1012.8 |
| 20260505010546 | 53 | 215 | 1.0 | 2.0 | 0.00 | 0.00 | 0.00 | 54 | 1012.8 |
| 20260505005524 | 53 | 213 | 1.0 | 3.0 | 0.00 | 0.00 | 0.00 | 53 | 1012.7 |
| 20260505004001 | 53 | 181 | 2.0 | 6.0 | 0.00 | 0.00 | 0.00 | 53 | 1012.8 |
| 20260505003019 | 54 | 186 | 2.0 | 12.0 | 0.00 | 0.00 | 0.00 | 53 | 1012.8 |
| 20260505001957 | 54 | 189 | 2.0 | 4.0 | 0.00 | 0.00 | 0.00 | 53 | 1012.8 |
| 20260505000954 | 54 | 193 | 2.0 | 9.0 | 0.00 | 0.00 | 0.00 | 53 | 1012.9 |
| 20260504235953 | 54 | 194 | 2.0 | 4.0 | 0.00 | 0.00 | 0.00 | 52 | 1013.0 |
| 20260504234951 | 54 | 205 | 1.0 | 13.0 | 0.00 | 0.00 | 0.00 | 52 | 1012.9 |
| 20260504233949 | 55 | 190 | 2.0 | 4.0 | 0.00 | 0.00 | 0.00 | 51 | 1013.0 |
| 20260504232947 | 55 | 180 | 2.0 | 6.0 | 0.00 | 0.00 | 0.00 | 51 | 1013.0 |
| 20260504231945 | 55 | 194 | 1.0 | 3.0 | 0.00 | 0.00 | 0.00 | 51 | 1013.1 |
| 20260504230942 | 55 | 187 | 2.0 | 7.0 | 0.00 | 0.00 | 0.00 | 51 | 1013.1 |
| 20260504225941 | 56 | 208 | 1.0 | 3.0 | 0.00 | 0.00 | 0.00 | 51 | 1013.2 |
| 20260504224938 | 56 | 189 | 2.0 | 10.0 | 0.00 | 0.00 | 0.00 | 50 | 1013.1 |
| 20260504223937 | 56 | 193 | 2.0 | 5.0 | 0.00 | 0.00 | 0.00 | 50 | 1013.1 |
| 20260504222935 | 56 | 185 | 2.0 | 9.0 | 0.00 | 0.00 | 0.00 | 50 | 1013.2 |
| 20260504221932 | 57 | 207 | 2.0 | 12.0 | 0.00 | 0.00 | 0.00 | 50 | 1013.2 |
| 20260504220931 | 57 | 206 | 1.0 | 2.0 | 0.00 | 0.00 | 0.00 | 50 | 1013.1 |
| 20260504215928 | 57 | 187 | 2.0 | 5.0 | 0.00 | 0.00 | 0.00 | 50 | 1013.2 |
| 20260504214927 | 58 | 220 | 1.0 | 5.0 | 0.00 | 0.00 | 0.00 | 50 | 1013.2 |
| 20260504213926 | 58 | 217 | 1.0 | 8.0 | 0.00 | 0.00 | 0.00 | 49 | 1013.2 |
| 20260504212943 | 59 | 204 | 2.0 | 5.0 | 0.00 | 0.00 | 0.00 | 49 | 1013.2 |
| 20260504211921 | 59 | 207 | 2.0 | 13.0 | 0.00 | 0.00 | 0.00 | 48 | 1013.2 |
| 20260504210939 | 60 | 198 | 2.0 | 14.0 | 0.00 | 0.00 | 0.00 | 47 | 1013.1 |
| 20260504205917 | 60 | 180 | 2.0 | 11.0 | 0.00 | 0.00 | 0.00 | 47 | 1013.1 |
| 20260504204915 | 60 | 178 | 2.0 | 3.0 | 0.00 | 0.00 | 0.00 | 47 | 1013.1 |
| 20260504203913 | 60 | 188 | 2.0 | 6.0 | 0.00 | 0.00 | 0.00 | 47 | 1013.1 |
| 20260504202910 | 60 | 177 | 2.0 | 11.0 | 0.00 | 0.00 | 0.00 | 47 | 1013.1 |
| 20260504201908 | 61 | 182 | 2.0 | 5.0 | 0.00 | 0.00 | 0.00 | 47 | 1013.2 |
| 20260504200909 | 61 | 189 | 2.0 | 10.0 | 0.00 | 0.00 | 0.00 | 47 | 1013.2 |
| 20260504195906 | 61 | 188 | 2.0 | 6.0 | 0.00 | 0.00 | 0.00 | 47 | 1013.0 |
| 20260504194904 | 61 | 225 | 1.0 | 14.0 | 0.00 | 0.00 | 0.00 | 47 | 1013.0 |
| 20260504193901 | 62 | 201 | 1.0 | 4.0 | 0.00 | 0.00 | 0.00 | 46 | 1013.0 |
| 20260504192859 | 62 | 216 | 1.0 | 2.0 | 0.00 | 0.00 | 0.00 | 46 | 1012.9 |
| 20260504191858 | 63 | 216 | 1.0 | 6.0 | 0.00 | 0.00 | 0.00 | 46 | 1012.9 |
| 20260504190855 | 63 | 202 | 1.0 | 6.0 | 0.00 | 0.00 | 0.00 | 46 | 1012.9 |
| 20260504185852 | 64 | 204 | 2.0 | 11.0 | 0.00 | 0.00 | 0.00 | 45 | 1012.8 |
| 20260504184852 | 64 | 191 | 2.0 | 13.0 | 0.00 | 0.00 | 0.00 | 45 | 1012.8 |
| 20260504183909 | 64 | 194 | 1.0 | 4.0 | 0.00 | 0.00 | 0.00 | 45 | 1012.7 |
| 20260504182847 | 65 | 199 | 1.0 | 2.0 | 0.00 | 0.00 | 0.00 | 45 | 1012.7 |
| 20260504181845 | 65 | 204 | 2.0 | 7.0 | 0.00 | 0.00 | 0.00 | 45 | 1012.5 |
| 20260504180903 | 66 | 225 | 1.0 | 6.0 | 0.00 | 0.00 | 0.00 | 44 | 1012.4 |
| 20260504175841 | 66 | 219 | 1.0 | 2.0 | 0.00 | 0.00 | 0.00 | 43 | 1012.3 |
| 20260504174840 | 67 | 225 | 1.0 | 2.0 | 0.00 | 0.00 | 0.00 | 42 | 1012.2 |
| 20260504173837 | 68 | 225 | 1.0 | 5.0 | 0.00 | 0.00 | 0.00 | 42 | 1012.2 |
| 20260504172835 | 69 | 235 | 1.0 | 6.0 | 0.00 | 0.00 | 0.00 | 41 | 1012.2 |
| 20260504171833 | 70 | 225 | 1.0 | 17.0 | 0.00 | 0.00 | 0.00 | 41 | 1012.2 |
| 20260504170832 | 70 | 225 | 1.0 | 3.0 | 0.00 | 0.00 | 0.00 | 41 | 1012.1 |
| 20260504150807 | 74 | 11 | 2.0 | 5.0 | 0.00 | 0.00 | 0.00 | 36 | 1012.1 |
| 20260504140755 | 75 | 14 | 3.0 | 7.0 | 0.00 | 0.00 | 0.00 | 35 | 1012.5 |
| 20260504130743 | 76 | 17 | 4.0 | 9.0 | 0.00 | 0.00 | 0.00 | 35 | 1012.7 |
| 20260504081744 | 66 | 270 | 2.0 | 6.0 | 0.00 | 0.00 | 0.00 | 52 | 1014.4 |
| 20260504080742 | 65 | 247 | 2.0 | 4.0 | 0.00 | 0.00 | 0.00 | 52 | 1014.4 |